"Time","Temp","Dewpoint","Humidity","Pressure","Direction","Speed","Gust","Precip","PrecipRate"
"00:04:56","40.3","38.2","92.1","30.33","138","0","0","0.00","0.00"
"00:09:58","40.4","38.4","92.7","30.33","138","0","0","0.00","0.00"
"00:14:56","40.5","38.4","92","30.33","138","0","0","0.00","0.00"
"00:19:57","40.5","38.4","92","30.33","138","0","0","0.00","0.00"
"00:24:57","40.5","38.4","92","30.33","138","0","0","0.00","0.00"
"00:29:57","40.5","38.4","92","30.33","138","0","0","0.00","0.00"
"00:34:56","40.5","38.4","92","30.33","138","0","0","0.00","0.00"
"00:39:56","40.6","38.5","92","30.33","138","0","0","0.00","0.00"
"00:44:59","40.6","38.5","92","30.33","138","0","0","0.00","0.00"
"00:49:57","40.6","38.5","92","30.33","138","0","0","0.00","0.00"
"00:54:56","40.7","38.6","92","30.33","138","0","0","0.00","0.00"
"00:59:59","40.7","38.6","92","30.33","138","0","0","0.00","0.00"
"01:04:58","40.8","38.7","92","30.32","138","0","0","0.00","0.00"
"01:09:56","40.8","38.7","92","30.32","138","0","0","0.00","0.00"
"01:14:57","40.9","38.8","92","30.32","138","0","0","0.00","0.00"
"01:19:56","40.9","38.8","92","30.32","138","0","0","0.00","0.00"
"01:24:59","41","38.9","92","30.32","138","0","0","0.00","0.00"
"01:29:58","41","38.9","92","30.32","138","0","0","0.00","0.00"
"01:34:57","41.1","39","92","30.32","138","0","0","0.00","0.00"
"01:39:56","41.2","39.1","92","30.32","138","0","0","0.00","0.00"
"01:44:59","41.3","39.2","92","30.32","138","0","0","0.00","0.00"
"01:49:57","41.4","39.3","92","30.32","138","0","0","0.00","0.00"
"01:54:59","41.5","39.3","92","30.32","138","0","0","0.00","0.00"
"01:59:58","41.5","39.3","92","30.32","138","0","0","0.00","0.00"
"02:04:57","41.6","39.4","92","30.31","138","0","0","0.00","0.00"
"02:09:59","41.7","39.5","92","30.31","138","0","0","0.00","0.00"
"02:14:56","41.7","39.5","92","30.32","138","0","0","0.00","0.00"
"02:19:58","41.8","39.6","92","30.32","138","0","0","0.00","0.00"
"02:24:57","41.8","39.6","92","30.32","138","0","0","0.00","0.00"
"02:29:59","41.9","39.7","92","30.32","138","0","0","0.00","0.00"
"02:34:58","42","39.8","92","30.31","138","0","0","0.00","0.00"
"02:39:57","42","40.1","93","30.31","138","0","0","0.00","0.00"
"02:44:56","42.1","40.2","93","30.31","138","0","0","0.00","0.00"
"02:49:59","42.1","40.2","93","30.31","138","0","0","0.00","0.00"
"02:54:58","42.1","40.2","93","30.31","138","0","0","0.00","0.00"
"02:59:56","42.2","40.3","93","30.31","138","0","0","0.00","0.00"
"03:04:57","42.2","40.3","93","30.31","138","0","0","0.00","0.00"
"03:09:59","42.2","40.3","93","30.31","138","0","0","0.00","0.00"
"03:14:59","42.3","40.4","93","30.31","138","0","0","0.00","0.00"
"03:19:58","42.2","40.3","93","30.30","138","0","0","0.00","0.00"
"03:24:57","42.2","40.3","93","30.30","138","0","0","0.00","0.00"
"03:29:59","42.2","40.3","93","30.30","138","0","0","0.00","0.00"
"03:34:58","42.1","40.2","93","30.30","138","0","0","0.00","0.00"
"03:39:59","42.1","40.2","93","30.30","138","0","0","0.00","0.00"
"03:44:58","42","40.1","93","30.30","138","0","0","0.00","0.00"
"03:49:56","42","40.2","93.3","30.30","138","0","0","0.00","0.00"
"03:54:59","42","40.3","93.8","30.30","138","0","0","0.00","0.00"
"03:59:57","42","40.4","94","30.30","138","0","0","0.00","0.00"
"04:04:57","42.1","40.5","94","30.30","138","0","0","0.00","0.00"
"04:09:59","42.2","40.6","94","30.30","138","0","0","0.00","0.00"
"04:14:57","42.2","40.6","94","30.30","138","0","0","0.00","0.00"
"04:19:58","42.3","40.7","94","30.30","138","0","0","0.00","0.00"
"04:24:57","42.3","40.7","94","30.30","138","0","0","0.00","0.00"
"04:29:56","42.3","40.7","94","30.30","138","0","0","0.00","0.00"
"04:34:58","42.3","40.7","94","30.29","138","0","0","0.00","0.00"
"04:39:59","42.3","40.7","94","30.29","138","0","0","0.00","0.00"
"04:44:57","42.3","40.7","94","30.29","138","0","0","0.00","0.00"
"04:49:58","42.4","40.8","94","30.29","138","0","0","0.01","0.01"
"04:54:56","42.4","40.8","94","30.29","138","0","0","0.01","0.01"
"04:59:58","42.4","40.9","94.3","30.29","138","0","0","0.01","0.01"
"05:04:57","42.4","41.1","95","30.29","138","0","0","0.01","0.01"
"05:09:59","42.4","41.1","95","30.29","138","0","0","0.01","0.01"
"05:14:56","42.4","41.1","95","30.30","138","0","0","0.01","0.01"
"05:19:58","42.5","41.2","95","30.30","138","0","0","0.01","0.01"
"05:24:57","42.6","41.3","95","30.30","138","0","0","0.01","0.01"
"05:29:57","42.8","41.5","95","30.30","138","0","0","0.01","0.01"
"05:34:56","43","41.7","95","30.30","138","0","0","0.01","0.01"
"05:39:56","43.2","41.9","95","30.30","138","0","0","0.01","0.01"
"05:44:59","43.5","42.2","95","30.30","130","1.3","3.6","0.01","0.01"
"05:49:58","43.6","42.3","95","30.30","130","1.2","3.6","0.01","0.01"
"05:54:57","43.7","42.4","95","30.30","130","1","2.4","0.01","0.00"
"05:59:59","43.7","42.4","95","30.30","130","0.3","2.3","0.01","0.00"
"06:04:59","43.7","42.4","95","30.30","130","0.7","2.4","0.01","0.00"
"06:09:58","43.7","42.4","95","30.30","130","0.9","2.4","0.01","0.00"
"06:14:58","43.7","42.4","95","30.31","130","0.6","2.4","0.01","0.00"
"06:19:56","43.7","42.4","95","30.31","130","0.2","2.3","0.01","0.00"
"06:24:59","43.7","42.4","95","30.31","130","0","0","0.01","0.00"
"06:29:58","43.7","42.4","95","30.31","130","0","0","0.01","0.00"
"06:34:56","43.7","42.4","95","30.31","130","0","0","0.01","0.00"
"06:39:56","43.7","42.4","95","30.31","130","0","0","0.01","0.00"
"06:44:58","43.7","42.4","95","30.31","130","0","0","0.01","0.00"
"06:49:57","43.7","42.4","95","30.31","130","0","0","0.01","0.00"
"06:54:59","43.7","42.4","95","30.31","130","0","0","0.01","0.00"
"06:59:57","43.7","42.4","95","30.31","130","0","0","0.01","0.00"
"07:04:57","43.7","42.4","95","30.31","130","0","0","0.01","0.00"
"07:09:59","43.7","42.4","95","30.31","130","0","0","0.01","0.00"
"07:14:59","43.7","42.4","95","30.31","130","0","0","0.01","0.00"
"07:19:58","43.7","42.4","95","30.31","130","0","0","0.01","0.00"
"07:24:57","43.7","42.4","95","30.31","130","0","0","0.01","0.00"
"07:29:59","43.7","42.4","95","30.31","130","0","0","0.01","0.00"
"07:34:58","43.7","42.4","95","30.31","130","0","0","0.01","0.00"
"07:39:58","43.7","42.4","95","30.31","130","0","0","0.02","0.01"
"07:44:57","43.7","42.4","95","30.31","130","0","0","0.02","0.01"
"07:49:56","43.7","42.4","95","30.31","130","0","0","0.02","0.01"
"07:54:59","43.7","42.4","95","30.31","130","0","0","0.02","0.01"
"07:59:58","43.8","42.5","95","30.31","130","0","0","0.02","0.01"
"08:04:58","43.8","42.5","95","30.31","130","0","0","0.02","0.01"
"08:09:56","43.8","42.5","95","30.31","130","0","0","0.03","0.01"
"08:14:56","43.8","42.5","95","30.31","130","0","0","0.03","0.02"
"08:19:58","43.8","42.5","95","30.31","130","0","0","0.04","0.03"
"08:24:57","43.8","42.5","95","30.31","130","0","0","0.04","0.03"
"08:29:58","43.9","42.6","95","30.32","130","0","0","0.05","0.04"
"08:34:59","43.9","42.6","95","30.32","130","0","0","0.06","0.04"
"08:39:59","43.9","42.6","95","30.32","130","0","0","0.06","0.05"
"08:44:58","43.9","42.6","95","30.32","130","0","0","0.07","0.05"
"08:49:56","43.9","42.6","95","30.32","130","0","0","0.08","0.06"
"08:54:58","43.9","42.6","95","30.32","130","0","0","0.09","0.07"
"08:59:56","44","42.7","95","30.32","130","0","0","0.09","0.07"
"09:04:56","44","42.7","95.2","30.32","130","0","0","0.10","0.08"
"09:09:58","44.1","43","95.9","30.32","130","0","0","0.11","0.09"
"09:14:58","44.2","43.1","96","30.32","130","0","0","0.12","0.09"
"09:19:56","44.2","43.1","96","30.32","130","0","0","0.13","0.09"
"09:24:58","44.3","43.2","96","30.32","130","0","0","0.14","0.09"
"09:29:56","44.4","43.3","96","30.32","130","0","0","0.14","0.10"
"09:34:59","44.5","43.4","96","30.32","130","0","0","0.14","0.09"
"09:39:58","44.5","43.4","96","30.32","130","0","0","0.15","0.09"
"09:44:56","44.6","43.5","96","30.32","130","0","0","0.15","0.09"
"09:49:58","44.6","43.5","96","30.32","130","0","0","0.15","0.08"
"09:54:57","44.7","43.6","96","30.32","130","0","0","0.15","0.07"
"09:59:59","44.8","43.7","96","30.32","130","0","0","0.15","0.06"
"10:04:58","44.9","43.8","96","30.32","130","0","0","0.15","0.06"
"10:09:57","45.1","44","96","30.32","130","0","0","0.15","0.05"
"10:14:57","45.2","44.1","96","30.32","130","0.1","3.6","0.15","0.04"
"10:19:59","45.4","44.3","96","30.31","130","0.6","3.5","0.15","0.03"
"10:24:58","45.4","44.3","96","30.31","130","0.9","2.4","0.15","0.02"
"10:29:56","45.5","44.4","96","30.31","130","0","1.2","0.15","0.01"
"10:34:59","45.7","44.6","96","30.31","130","0.4","2.4","0.15","0.01"
"10:39:57","45.8","44.7","96","30.31","130","1.2","3.6","0.15","0.01"
"10:44:59","45.9","44.7","95.7","30.31","130","0.8","2.4","0.15","0.00"
"10:49:57","45.9","44.7","95.6","30.31","130","1.3","2.4","0.15","0.00"
"10:54:59","45.9","44.5","95","30.31","130","0.2","1.2","0.15","0.00"
"10:59:56","46.1","44.7","95","30.31","130","0.5","2.4","0.15","0.00"
"11:04:59","46.1","44.7","95","30.30","130","0.8","2.4","0.15","0.00"
"11:09:58","46.2","44.8","95","30.30","130","0.3","2.4","0.15","0.00"
"11:14:57","46.2","44.8","95","30.30","130","0.1","2.3","0.15","0.00"
"11:19:59","46.3","44.9","95","30.29","130","0","0","0.15","0.00"
"11:24:58","46.3","44.9","95","30.29","130","0","0","0.15","0.00"
"11:29:56","46.3","44.9","94.8","30.29","130","0","0","0.15","0.00"
"11:34:58","46.4","44.8","94.2","30.28","130","0","0","0.15","0.00"
"11:39:57","46.4","44.8","94","30.28","130","0","0","0.15","0.00"
"11:44:59","46.5","44.9","94","30.28","130","0.1","1.2","0.15","0.00"
"11:49:57","46.6","45","94","30.28","130","0.3","2.4","0.15","0.00"
"11:54:56","46.6","45","94","30.28","130","0","0","0.15","0.00"
"11:59:57","46.7","45.1","94","30.28","130","0","0","0.15","0.00"
"12:04:57","46.7","45.1","94","30.27","130","0","0","0.15","0.00"
"12:09:59","46.8","45.2","94","30.27","130","0","0","0.15","0.00"
"12:14:59","46.9","45.3","94.2","30.27","130","0","0","0.15","0.00"
"12:19:56","46.9","45.3","94","30.25","130","0","0","0.15","0.00"
"12:24:56","47","45.4","94","30.25","130","0","0","0.15","0.00"
"12:29:58","47.1","45.5","94.2","30.25","131","0.8","3.6","0.15","0.00"
"12:34:59","47.2","45.6","94","30.25","131","1.1","2.4","0.15","0.00"
"12:39:58","47.2","45.6","94","30.25","131","0.2","1.2","0.15","0.00"
"12:44:56","47.3","45.9","94.8","30.25","131","1.2","2.4","0.15","0.00"
"12:49:58","47.4","45.9","94.7","30.24","131","1.1","3.6","0.15","0.00"
"12:54:56","47.4","45.8","94","30.24","132","1.5","3.6","0.15","0.00"
"12:59:57","47.4","45.8","94","30.24","132","0.7","2.4","0.15","0.00"
"13:04:56","47.4","45.8","94.2","30.24","132","0.6","2.4","0.15","0.00"
"13:09:58","47.4","45.9","94.8","30.24","132","0.8","3.6","0.15","0.00"
"13:14:58","47.4","45.8","94.2","30.24","132","2.1","3.6","0.15","0.00"
"13:19:56","47.4","45.9","94.8","30.23","132","1.3","3.5","0.15","0.00"
"13:24:58","47.4","46","95","30.23","132","1.5","3.6","0.15","0.00"
"13:29:56","47.3","45.9","95","30.23","132","0.9","2.4","0.15","0.00"
"13:34:58","47.3","45.9","95","30.22","132","1","2.4","0.15","0.00"
"13:39:57","47.3","45.9","95","30.22","132","0.7","2.4","0.15","0.00"
"13:44:59","47.4","46","95","30.22","132","1","2.4","0.15","0.00"
"13:49:57","47.5","46.1","95","30.22","132","0.7","2.4","0.15","0.00"
"13:54:59","47.5","46.1","95","30.22","132","0.8","2.4","0.15","0.00"
"13:59:56","47.5","46.1","95","30.22","132","0.2","2.3","0.15","0.00"
"14:04:59","47.5","46.1","95","30.20","132","0.2","1.2","0.15","0.00"
"14:09:57","47.6","46.2","95","30.20","132","0.1","1.2","0.15","0.00"
"14:14:59","47.6","46.2","95","30.20","132","0.4","3.6","0.15","0.00"
"14:19:57","47.7","46.3","95","30.20","132","0.9","3.6","0.15","0.00"
"14:24:59","47.7","46.3","95","30.20","132","0.9","3.6","0.15","0.00"
"14:29:57","47.8","46.4","95","30.21","132","1","3.6","0.15","0.00"
"14:34:59","47.8","46.4","95","30.21","132","0.8","2.4","0.15","0.00"
"14:39:59","47.8","46.4","95","30.21","132","0.9","2.4","0.15","0.00"
"14:44:57","47.8","46.4","95","30.21","132","1.2","2.4","0.15","0.00"
"14:49:58","47.8","46.4","95","30.20","132","1","2.4","0.15","0.00"
"14:54:56","47.8","46.4","95","30.20","132","0.6","2.4","0.15","0.00"
"14:59:57","47.9","46.5","95","30.21","147","1.2","3.6","0.15","0.00"
"15:04:56","47.9","46.5","95","30.21","148","0.3","2.3","0.15","0.00"
"15:09:58","47.9","46.5","95","30.21","148","0.1","1.2","0.15","0.00"
"15:14:57","48","46.6","95","30.21","148","0.2","2.4","0.15","0.00"
"15:19:58","48","46.6","95","30.20","148","0.4","2.4","0.15","0.00"
"15:24:56","48.1","46.7","95","30.20","148","0.5","2.4","0.15","0.00"
"15:29:57","48.1","46.7","95","30.20","148","0.5","2.4","0.15","0.00"
"15:34:59","48.1","46.7","95","30.20","148","0.3","2.4","0.15","0.00"
"15:39:57","48.2","46.8","95","30.20","148","0.3","2.4","0.15","0.00"
"15:44:58","48.3","46.9","95","30.20","148","0.1","1.2","0.15","0.00"
"15:49:59","48.3","46.9","95","30.20","148","0.1","1.2","0.15","0.00"
"15:54:57","48.3","46.9","95","30.20","148","0","1.2","0.15","0.00"
"15:59:58","48.3","46.9","95","30.20","148","0.1","1.2","0.15","0.00"
"16:04:57","48.3","46.9","95","30.20","148","0.3","2.4","0.15","0.00"
"16:09:59","48.4","47","95","30.20","148","0.2","1.2","0.15","0.00"
"16:14:58","48.4","47","95","30.20","148","0.6","3.6","0.15","0.00"
"16:19:59","48.4","47","95","30.20","148","0.6","3.6","0.15","0.00"
"16:24:57","48.4","47","95","30.20","148","0.6","3.5","0.15","0.00"
"16:29:58","48.4","47","95","30.20","148","1.2","2.4","0.15","0.00"
"16:34:56","48.5","47.1","95","30.20","148","0.9","2.4","0.15","0.00"
"16:39:59","48.5","47.1","95","30.20","148","0.8","2.4","0.15","0.00"
"16:44:57","48.5","47.1","95","30.20","148","0.2","1.2","0.15","0.00"
"16:49:58","48.4","47","95","30.20","148","0","0","0.15","0.00"
"16:54:56","48.4","47","95","30.20","148","0","0","0.15","0.00"
"16:59:58","48.4","47","95","30.20","148","0.2","2.4","0.15","0.00"
"17:04:57","48.4","47","95","30.20","148","0.7","2.4","0.15","0.00"
"17:09:59","48.4","47","95","30.20","148","0.3","2.4","0.15","0.00"
"17:14:58","48.4","47","95","30.20","148","0","1.2","0.15","0.00"
"17:19:57","48.4","47","95","30.20","148","0","0","0.15","0.00"
"17:24:59","48.4","47","95","30.20","148","0","0","0.15","0.00"
"17:29:57","48.4","47","95","30.20","148","0.1","1.2","0.15","0.00"
"17:34:59","48.3","46.9","95","30.20","148","0.5","1.2","0.15","0.00"
"17:39:58","48.3","46.9","95","30.20","148","0.8","3.6","0.15","0.00"
"17:44:56","48.2","46.8","95","30.20","148","0.4","2.4","0.15","0.00"
"17:49:33","48.1","46.8","95.3","30.20","148","0.2","1.2","0.15","0.00"
"17:54:59","48.1","47","96","30.20","148","0.1","1.2","0.15","0.00"
"17:59:57","48","46.9","96","30.21","148","0","0","0.15","0.00"
"18:04:57","48","46.9","96","30.21","148","0.3","2.4","0.15","0.00"
"18:09:59","48","46.9","96","30.21","148","0.6","2.4","0.15","0.00"
"18:14:58","47.9","46.8","96","30.21","148","0.2","1.2","0.15","0.00"
"18:19:59","47.9","46.8","96","30.20","148","0.6","2.4","0.16","0.01"
"18:24:57","47.9","46.8","96","30.20","148","0","0","0.16","0.01"
"18:29:58","47.9","46.8","96","30.21","148","0","0","0.16","0.01"
"18:34:56","47.9","46.8","96","30.21","148","0","0","0.16","0.01"
"18:39:59","47.8","46.7","96","30.21","148","0","0","0.17","0.02"
"18:44:57","47.8","46.7","96","30.21","148","0","0","0.18","0.02"
"18:49:58","47.8","46.7","96","30.20","148","0","0","0.18","0.03"
"18:54:56","47.8","46.7","96","30.20","148","0","0","0.18","0.03"
"18:59:57","47.8","46.7","96","30.20","148","0","0","0.18","0.03"
"19:04:57","47.8","46.7","96","30.20","148","0.8","2.4","0.18","0.03"
"19:09:59","47.8","46.7","96","30.20","148","0.5","2.4","0.18","0.03"
"19:14:58","47.8","46.8","96.3","30.20","148","0.9","2.4","0.19","0.04"
"19:19:56","47.7","46.9","97","30.19","148","0.9","2.4","0.19","0.04"
"19:24:58","47.7","46.9","97","30.19","147","1.7","3.6","0.19","0.03"
"19:29:59","47.7","46.9","97","30.19","147","0.6","2.4","0.19","0.03"
"19:34:57","47.6","46.8","97","30.19","147","0.8","2.4","0.19","0.03"
"19:39:56","47.6","46.8","96.9","30.19","128","1.8","3.6","0.19","0.03"
"19:44:58","47.6","46.8","97","30.19","113","1.6","3.6","0.19","0.02"
"19:49:56","47.6","46.8","96.9","30.19","113","0.6","2.4","0.20","0.02"
"19:54:58","47.6","46.7","96.9","30.19","113","0.5","2.4","0.20","0.02"
"19:59:59","47.6","46.8","97","30.19","113","0.3","1.2","0.20","0.02"
"20:04:58","47.5","46.7","97","30.18","113","0.8","2.4","0.20","0.02"
"20:09:56","47.5","46.7","97","30.18","113","1.1","2.4","0.20","0.02"
"20:14:56","47.5","46.7","97","30.18","113","1","2.4","0.20","0.02"
"20:19:57","47.5","46.7","97","30.17","113","1.1","2.4","0.20","0.01"
"20:24:59","47.5","46.7","97","30.17","113","0.1","1.2","0.20","0.01"
"20:29:57","47.5","46.7","97","30.17","113","0.2","2.4","0.20","0.01"
"20:34:59","47.5","46.7","97","30.17","113","0.7","2.4","0.20","0.01"
"20:39:59","47.5","46.7","97","30.17","113","0.3","2.3","0.21","0.02"
"20:44:56","47.4","46.6","97","30.17","113","0.6","2.4","0.21","0.02"
"20:49:59","47.4","46.6","97","30.17","113","0.2","2.3","0.22","0.02"
"20:54:56","47.4","46.6","97","30.17","113","0","0","0.22","0.02"
"20:59:57","47.4","46.6","97","30.17","113","0.3","1.2","0.22","0.02"
"21:04:56","47.4","46.6","97","30.17","113","0.2","1.2","0.22","0.02"
"21:09:58","47.4","46.6","97","30.17","113","0","0","0.22","0.02"
"21:14:57","47.4","46.6","97","30.17","113","0","0","0.22","0.02"
"21:19:59","47.4","46.6","97","30.17","113","0","0","0.22","0.02"
"21:24:57","47.3","46.5","97","30.17","113","0","0","0.22","0.02"
"21:29:58","47.3","46.5","97","30.17","113","0","0","0.22","0.02"
"21:34:56","47.3","46.5","97","30.17","112","0.4","3.6","0.22","0.02"
"21:39:58","47.3","46.5","97","30.17","112","0","1.2","0.23","0.02"
"21:44:56","47.2","46.4","97","30.17","112","0.1","2.4","0.23","0.02"
"21:49:58","47.2","46.4","97","30.17","112","0","0","0.23","0.02"
"21:54:56","47.2","46.4","97","30.17","113","0","0","0.23","0.01"
"21:59:57","47.2","46.4","97","30.17","113","0","0","0.23","0.01"
"22:04:57","47.2","46.4","97","30.17","113","0","0","0.24","0.02"
"22:09:59","47.2","46.4","97","30.17","113","0","0","0.24","0.02"
"22:14:58","47.2","46.4","97","30.17","112","0","0","0.24","0.02"
"22:19:59","47.2","46.4","97","30.17","112","0","1.2","0.24","0.02"
"22:24:57","47.2","46.4","97","30.17","112","0.5","1.2","0.24","0.02"
"22:29:58","47.2","46.4","97","30.17","112","0.2","1.2","0.24","0.02"
"22:34:56","47.3","46.5","97","30.17","112","0","0","0.24","0.02"
"22:39:59","47.3","46.5","97","30.17","112","0.8","2.4","0.25","0.02"
"22:44:56","47.3","46.5","97","30.17","112","1.1","2.4","0.25","0.02"
"22:49:57","47.3","46.5","97","30.16","112","1","2.4","0.25","0.02"
"22:54:59","47.2","46.4","97","30.16","111","1","4.8","0.26","0.03"
"22:59:56","47.2","46.4","97","30.16","110","0.6","4.6","0.26","0.03"
"23:04:56","47.2","46.4","97","30.15","103","1.2","4.8","0.26","0.03"
"23:09:58","47.2","46.4","97","30.15","103","0.9","3.6","0.26","0.02"
"23:14:57","47.2","46.4","97","30.15","103","0.9","3.5","0.26","0.02"
"23:19:59","47.2","46.4","97","30.15","103","0.3","1.2","0.26","0.02"
"23:24:57","47.2","46.4","97","30.15","103","0.2","1.2","0.26","0.02"
"23:29:58","47.3","46.5","97","30.15","103","0","1.2","0.27","0.03"
"23:34:59","47.3","46.5","97","30.14","103","0","0","0.27","0.03"
"23:39:57","47.3","46.5","97","30.14","103","0","0","0.27","0.03"
"23:44:59","47.3","46.5","97","30.14","103","0","1.2","0.27","0.02"
"23:49:56","47.3","46.5","97","30.14","103","0","0","0.28","0.03"
"23:54:58","47.4","46.6","97","30.14","103","0.3","2.4","0.28","0.03"
